Waarnemingen

Advertentie
Mijn weer
Semmerzake, België (6428): temperatuur & dauwpunt: 17.10.2017 09:00:00 - 23.10.2017 09:00:00 (CEST)Semmerzake, België (6428): windsnelheid & windstoten: 17.10.2017 09:00:00 - 23.10.2017 09:00:00 (CEST)Semmerzake, België (6428): windrichting: 17.10.2017 09:00:00 - 23.10.2017 09:00:00 (CEST)Semmerzake, België (6428): luchtdruk: 17.10.2017 09:00:00 - 23.10.2017 09:00:00 (CEST)Semmerzake, België (6428): zicht: 17.10.2017 09:00:00 - 23.10.2017 09:00:00 (CEST)
Datum & Tijd tt [°C] td [°C] ff [km/u] ff [kn] fx [km/u] fx [kn] dd ppp [hPa] vv [km]
23.10.2017 09:00:00 10,3 8,0 14 8 22 12 WZW 1019,7 20
23.10.2017 08:00:00 9,8 8,0 7 4 - - WZW 1019,5 20
23.10.2017 07:00:00 9,6 7,9 7 4 18 10 WZW 1019,3 20
23.10.2017 06:00:00 9,3 7,6 11 6 18 10 WZW 1019,1 20
23.10.2017 05:00:00 9,3 7,6 11 6 - - WZW 1018,7 19
23.10.2017 04:00:00 9,3 7,1 11 6 22 12 WZW 1018,5 20
23.10.2017 03:00:00 9,6 7,0 11 6 18 10 WZW 1018,2 20
23.10.2017 02:00:00 9,6 7,1 7 4 - - WZW 1018,2 20
23.10.2017 01:00:00 10,0 7,1 11 6 18 10 WZW 1017,8 20
23.10.2017 00:00:00 8,3 5,9 7 4 14 8 ZW 1017,6 20
22.10.2017 23:00:00 8,8 6,4 7 4 - - ZZW 1017,2 19
22.10.2017 22:00:00 9,3 6,5 7 4 18 10 ZW 1016,7 19
22.10.2017 21:00:00 10,1 5,7 11 6 18 10 WZW 1016,5 20
22.10.2017 20:00:00 10,1 6,2 11 6 - - WZW 1016,1 20
22.10.2017 19:00:00 10,2 5,4 11 6 36 19 WZW 1015,5 19
22.10.2017 18:00:00 11,3 5,6 11 6 29 16 W 1014,8 20
22.10.2017 17:00:00 11,6 5,8 14 8 - - W 1014,5 20
22.10.2017 16:00:00 12,0 6,2 14 8 36 19 W 1014,0 20
22.10.2017 15:00:00 11,6 6,2 22 12 36 19 WZW 1013,6 13
22.10.2017 14:00:00 11,8 6,0 22 12 - - W 1013,3 20
22.10.2017 13:00:00 11,3 6,8 22 12 40 21 WZW 1013,1 19
22.10.2017 12:00:00 11,6 7,1 18 10 43 23 WZW 1012,6 20
22.10.2017 11:00:00 11,6 7,6 18 10 - - WZW 1012,1 19
22.10.2017 10:00:00 10,6 7,9 18 10 32 18 WZW 1011,3 20
22.10.2017 09:00:00 10,3 9,0 18 10 32 18 ZW 1010,7 20
22.10.2017 08:00:00 9,8 8,9 22 12 - - ZZW 1009,7 20
22.10.2017 07:00:00 10,0 8,8 22 12 47 25 ZZW 1009,3 20
22.10.2017 06:00:00 9,8 8,8 25 14 43 23 ZZW 1008,7 20
22.10.2017 05:00:00 9,8 8,7 25 14 - - ZZW 1008,6 20
22.10.2017 04:00:00 9,4 8,2 25 14 50 27 ZZW 1008,5 13
22.10.2017 03:00:00 9,2 8,0 32 18 54 29 ZZW 1008,3 9
22.10.2017 02:00:00 10,2 7,1 32 18 - - ZZW 1008,5 10
22.10.2017 01:00:00 11,0 6,5 32 18 47 25 ZZW 1008,7 20
22.10.2017 00:00:00 10,7 6,5 25 14 47 25 ZZW 1009,3 20
21.10.2017 23:00:00 11,2 6,6 25 14 - - ZZW 1009,8 20
21.10.2017 22:00:00 12,0 6,5 25 14 40 21 ZZW 1009,5 20
21.10.2017 21:00:00 12,8 6,9 18 10 36 19 ZW 1009,8 20
21.10.2017 20:00:00 12,6 7,6 18 10 - - ZZW 1009,7 20
21.10.2017 19:00:00 10,3 8,7 4 2 47 25 N 1009,7 20
21.10.2017 18:00:00 13,8 7,8 14 8 47 25 ZW 1009,8 19
21.10.2017 17:00:00 15,8 6,8 25 14 - - ZW 1009,3 18
21.10.2017 16:00:00 16,6 7,2 25 14 47 25 ZW 1009,2 20
21.10.2017 15:00:00 15,8 8,3 29 16 47 25 ZZW 1009,6 19
21.10.2017 14:00:00 15,6 8,8 22 12 - - ZW 1009,8 20
21.10.2017 13:00:00 15,8 9,2 25 14 47 25 ZW 1009,8 20
21.10.2017 12:00:00 15,4 10,7 25 14 43 23 ZW 1009,8 20
21.10.2017 11:00:00 15,1 12,1 22 12 - - ZZW 1009,7 20
21.10.2017 10:00:00 14,1 12,6 22 12 40 21 ZZW 1009,3 20
21.10.2017 09:00:00 13,5 12,3 22 12 36 19 ZZW 1008,7 19
21.10.2017 08:00:00 12,5 11,7 18 10 - - Z 1008,7 19
21.10.2017 07:00:00 12,0 11,1 22 12 40 21 Z 1008,7 7
21.10.2017 06:00:00 12,8 9,4 22 12 40 21 Z 1008,7 12
21.10.2017 05:00:00 12,3 8,6 22 12 - - Z 1008,8 20
21.10.2017 04:00:00 11,9 8,3 18 10 29 16 Z 1009,7 20
21.10.2017 03:00:00 11,3 7,9 18 10 25 14 Z 1010,7 20
21.10.2017 02:00:00 11,9 7,8 18 10 - - Z 1011,5 20
21.10.2017 01:00:00 11,9 7,5 18 10 25 14 Z 1012,0 20
21.10.2017 00:00:00 11,5 7,6 14 8 25 14 ZZW 1012,3 20
20.10.2017 23:00:00 11,2 7,3 14 8 - - ZZW 1013,0 20
20.10.2017 22:00:00 11,8 7,9 14 8 25 14 ZZW 1012,8 20
20.10.2017 21:00:00 12,5 8,3 14 8 22 12 ZZW 1013,0 19
20.10.2017 20:00:00 11,9 7,8 11 6 - - ZZW 1013,0 18
20.10.2017 19:00:00 13,1 7,1 14 8 40 21 ZW 1012,3 20
20.10.2017 18:00:00 14,2 7,5 25 14 43 23 ZW 1011,8 19
20.10.2017 17:00:00 14,8 7,6 25 14 - - ZW 1011,2 16
20.10.2017 16:00:00 15,2 7,3 29 16 50 27 ZW 1010,5 15
20.10.2017 15:00:00 12,8 9,7 22 12 47 25 ZZW 1010,1 11
20.10.2017 14:00:00 12,8 10,2 22 12 - - ZZW 1009,7 20
20.10.2017 13:00:00 12,7 9,3 29 16 47 25 ZZW 1009,2 20
20.10.2017 12:00:00 12,4 9,0 29 16 61 33 ZZW 1008,6 20
20.10.2017 11:00:00 12,6 9,1 29 16 - - ZZW 1008,1 20
20.10.2017 10:00:00 12,3 9,3 25 14 47 25 ZZW 1007,3 20
20.10.2017 09:00:00 12,1 9,3 22 12 43 23 ZZW 1006,7 20
20.10.2017 08:00:00 12,7 10,9 25 14 - - ZZW 1006,0 20
20.10.2017 07:00:00 13,5 12,2 22 12 47 25 ZZW 1005,3 20
20.10.2017 06:00:00 13,6 13,2 22 12 36 19 ZZW 1004,8 5
20.10.2017 05:00:00 14,1 13,0 18 10 - - Z 1004,6 9
20.10.2017 04:00:00 15,8 12,2 25 14 40 21 Z 1005,5 20
20.10.2017 03:00:00 15,8 12,4 22 12 36 19 Z 1005,6 20
20.10.2017 02:00:00 16,2 13,0 22 12 - - Z 1006,3 20
20.10.2017 01:00:00 16,5 13,7 18 10 29 16 Z 1006,3 20
20.10.2017 00:00:00 17,0 14,2 18 10 29 16 Z 1006,2 20
19.10.2017 23:00:00 16,6 14,6 18 10 - - Z 1006,5 20
19.10.2017 22:00:00 18,6 13,4 18 10 25 14 Z 1006,6 20
19.10.2017 21:00:00 17,9 13,0 11 6 25 14 Z 1006,7 20
19.10.2017 20:00:00 18,5 13,6 11 6 - - Z 1007,0 20
19.10.2017 19:00:00 18,8 14,1 7 4 22 12 Z 1007,1 20
19.10.2017 18:00:00 19,9 13,7 14 8 32 18 Z 1006,7 20
19.10.2017 17:00:00 20,8 13,5 22 12 - - Z 1006,8 19
19.10.2017 16:00:00 21,2 13,4 25 14 40 21 Z 1006,8 19
19.10.2017 15:00:00 20,3 13,4 22 12 36 19 Z 1007,2 19
19.10.2017 14:00:00 19,1 13,5 14 8 - - ZZO 1007,8 20
19.10.2017 13:00:00 17,4 12,6 18 10 29 16 Z 1008,8 19
19.10.2017 12:00:00 15,8 11,8 11 6 25 14 ZZO 1009,3 18
19.10.2017 11:00:00 14,9 11,1 11 6 - - ZZO 1009,6 15
19.10.2017 10:00:00 14,1 10,9 11 6 22 12 ZZO 1010,1 13
19.10.2017 09:00:00 13,0 10,5 14 8 22 12 Z 1010,2 14
19.10.2017 08:00:00 12,8 10,3 11 6 - - ZO 1009,8 15
19.10.2017 07:00:00 13,3 10,7 11 6 18 10 ZZO 1010,1 14
19.10.2017 06:00:00 12,9 10,9 7 4 14 8 ZO 1010,3 12
19.10.2017 05:00:00 12,8 11,3 11 6 - - ZO 1010,7 10
19.10.2017 04:00:00 13,0 11,2 4 2 11 6 N 1011,3 9
19.10.2017 03:00:00 13,0 11,4 4 2 11 6 N 1011,8 9
19.10.2017 02:00:00 13,3 12,0 11 6 - - Z 1012,0 8
19.10.2017 01:00:00 13,9 12,2 7 4 11 6 Z 1012,2 8
19.10.2017 00:00:00 14,8 12,8 7 4 11 6 ZZO 1012,2 10
18.10.2017 23:00:00 15,3 13,3 7 4 - - Z 1012,3 9
18.10.2017 22:00:00 16,1 13,9 7 4 11 6 ZZO 1012,2 10
18.10.2017 21:00:00 16,7 14,0 4 2 11 6 N 1012,2 13
18.10.2017 20:00:00 17,0 14,2 4 2 - - N 1012,2 14
18.10.2017 19:00:00 17,9 14,6 4 2 7 4 N 1012,0 14
18.10.2017 18:00:00 18,8 14,9 4 2 14 8 N 1011,8 17
18.10.2017 17:00:00 19,5 14,6 7 4 - - Z 1011,7 16
18.10.2017 16:00:00 19,0 14,2 4 2 18 10 N 1012,0 13
18.10.2017 15:00:00 19,2 14,1 11 6 22 12 ZZW 1012,1 11
18.10.2017 14:00:00 18,4 14,3 11 6 - - Z 1012,6 10
18.10.2017 13:00:00 16,8 13,1 11 6 14 8 ZZW 1013,0 11
18.10.2017 12:00:00 15,7 12,4 7 4 14 8 ZZW 1013,2 13
18.10.2017 11:00:00 13,6 11,8 7 4 - - ZZO 1013,2 13
18.10.2017 10:00:00 11,7 11,5 4 2 7 4 N 1013,5 4,5
18.10.2017 09:00:00 10,9 10,9 4 2 7 4 N 1013,6 0,2
18.10.2017 08:00:00 11,1 11,1 4 2 - - N 1013,5 0,1
18.10.2017 07:00:00 11,6 11,6 7 4 14 8 O 1013,6 1,0
18.10.2017 06:00:00 11,6 11,3 7 4 14 8 ONO 1013,8 5
18.10.2017 05:00:00 11,5 11,0 4 2 - - N 1014,3 6
18.10.2017 04:00:00 11,4 10,8 4 2 7 4 N 1014,7 6
18.10.2017 03:00:00 12,1 11,3 7 4 11 6 N 1015,2 7
18.10.2017 02:00:00 12,6 11,4 7 4 - - NO 1015,7 1,8
18.10.2017 01:00:00 12,8 11,3 7 4 11 6 NO 1016,2 1,5
18.10.2017 00:00:00 12,2 10,8 7 4 11 6 NO 1016,8 1,7
17.10.2017 23:00:00 12,2 11,0 4 2 - - N 1017,5 5
17.10.2017 22:00:00 13,1 11,4 4 2 7 4 N 1017,7 3,9
17.10.2017 21:00:00 13,3 11,5 4 2 11 6 N 1018,2 1,5
17.10.2017 20:00:00 13,5 11,8 7 4 - - NO 1018,7 1,8
17.10.2017 19:00:00 14,6 11,4 4 2 7 4 N 1018,7 6
17.10.2017 18:00:00 15,5 12,0 4 2 7 4 N 1019,0 3,7
17.10.2017 17:00:00 16,1 11,8 4 2 - - N 1019,6 10
17.10.2017 16:00:00 16,2 11,6 4 2 7 4 N 1020,1 14
17.10.2017 15:00:00 16,1 11,5 4 2 14 8 N 1021,0 13
17.10.2017 14:00:00 15,8 11,8 7 4 - - WZW 1021,7 13
17.10.2017 13:00:00 15,1 12,6 7 4 14 8 ZW 1022,3 10
17.10.2017 12:00:00 14,6 12,7 7 4 14 8 ZZW 1022,6 10
17.10.2017 11:00:00 13,6 12,3 7 4 - - ZZW 1022,7 9
17.10.2017 10:00:00 12,7 11,8 7 4 11 6 Z 1022,8 9
17.10.2017 09:00:00 12,0 11,4 7 4 11 6 Z 1022,5 9

tt = temperatuur
td = dauwpunt
ff = windsnelheid
fx = windstoten
dd = windrichting
ppp = luchtdruk
vv = zicht

Weerstations in de omgeving